Linden, NJ

9:53 PM EDT on April 23, 2018 (GMT -0400)
Linden

Weather History for KLDJ - July, 2013

Change the Weather History Date:

Wednesday, July 3, 2013

  Actual Average (KEWR) Record (KEWR)
Temperature  
Mean Temperature 80 °F -  
Max Temperature 88 °F 84 °F 105 °F (1966)
Min Temperature 73 °F 67 °F 52 °F (1933)
Cooling Degree Days 16    
Growing Degree Days 30 (Base 50)    
Moisture  
Dew Point 73 °F    
Average Humidity 78    
Maximum Humidity 91    
Minimum Humidity 55    
Precipitation  
Precipitation 0.01 in - - ()
Sea Level Pressure  
Sea Level Pressure 30.21 in    
Wind  
Wind Speed 2 mph (SW)    
Max Wind Speed 15 mph    
Max Gust Speed 18 mph    
Visibility 10 miles    
Events Rain , Thunderstorm    
Averages and records for this station are not official NWS values.
T = Trace of Precipitation, MM = Missing Value Source: NWS Daily Summary

Daily Weather History Graph

Daily Weather History Graph

Search for Another Location

Airport or City:

Astronomy

Jul. 03, 2013 Rise Set
Actual Time 5:30 AM EDT 8:31 PM EDT
Civil Twilight 4:57 AM EDT 9:04 PM EDT
Nautical Twilight 4:15 AM EDT 9:46 PM EDT
Astronomical Twilight 3:26 AM EDT 10:35 PM EDT
Moon 2:07 AM EDT (7/3) 4:39 PM EDT (7/3)
Length of Visible Light 16h 06m
Length of Day
15h 00m
Waning Crescent, 18% of the Moon is Illuminated
Jul 3
Waning Crescent
Jul 8
New
Jul 15
First Quarter
Jul 22
Full
Jul 29
Last Quarter

Hourly Weather History & Observations

Time (EDT) Temp. Heat Index Dew Point Humidity Pressure Visibility Wind Dir Wind Speed Gust Speed Precip Events Conditions
12:15 AM - - - N/A% - - North - - N/A   Unknown
12:35 AM - - - N/A% - - North - - N/A   Unknown
12:55 AM - - - N/A% - - North - - N/A   Unknown
1:15 AM - - - N/A% - - North - - N/A   Unknown
1:35 AM - - - N/A% - - North - - N/A   Unknown
1:55 AM 75.2 °F - 70.0 °F 84% 30.19 in - Calm Calm - N/A   Unknown
2:15 AM 75.2 °F - 69.8 °F 83% 30.19 in 10.0 mi Calm Calm - N/A   Clear
2:35 AM 75.2 °F - 69.8 °F 83% 30.19 in 10.0 mi WSW 3.5 mph - N/A   Clear
2:55 AM 75.2 °F - 69.6 °F 83% 30.19 in 10.0 mi SW 3.5 mph - N/A   Clear
3:15 AM 74.8 °F - 69.8 °F 84% 30.19 in 10.0 mi Calm Calm - N/A   Clear
3:35 AM 74.7 °F - 69.8 °F 85% 30.19 in 10.0 mi Calm Calm - N/A   Clear
3:55 AM 74.3 °F - 69.8 °F 86% 30.19 in 10.0 mi Calm Calm - N/A   Clear
4:15 AM 74.3 °F - 70.0 °F 86% 30.20 in 10.0 mi Calm Calm - N/A   Scattered Clouds
4:35 AM 74.1 °F - 70.0 °F 87% 30.20 in 10.0 mi Calm Calm - N/A   Scattered Clouds
4:55 AM 73.8 °F - 70.2 °F 88% 30.21 in 10.0 mi Calm Calm - N/A   Clear
5:15 AM 73.6 °F - 70.7 °F 91% 30.21 in 10.0 mi Calm Calm - N/A   Clear
5:35 AM 73.6 °F - 70.7 °F 91% 30.21 in 10.0 mi Calm Calm - N/A   Clear
5:55 AM 73.6 °F - 70.7 °F 91% 30.22 in 10.0 mi Calm Calm - N/A   Mostly Cloudy
6:15 AM 73.9 °F - 71.1 °F 91% 30.22 in 10.0 mi Calm Calm - N/A   Overcast
6:35 AM 74.3 °F - 71.6 °F 91% 30.23 in 10.0 mi Calm Calm - N/A   Overcast
6:55 AM 74.7 °F - 71.6 °F 90% 30.23 in 10.0 mi Calm Calm - N/A   Overcast
7:15 AM 75.2 °F - 71.8 °F 89% 30.23 in 10.0 mi Calm Calm - N/A   Overcast
7:35 AM 75.6 °F - 72.0 °F 89% 30.24 in 10.0 mi Calm Calm - N/A   Overcast
7:55 AM 76.1 °F - 71.8 °F 86% 30.24 in 10.0 mi Calm Calm - N/A   Mostly Cloudy
8:15 AM 77.0 °F - 72.0 °F 84% 30.24 in 10.0 mi Calm Calm - N/A   Scattered Clouds
8:35 AM 77.0 °F - 72.0 °F 84% 30.24 in 10.0 mi South 3.5 mph - N/A   Scattered Clouds
8:55 AM 77.9 °F - 72.1 °F 82% 30.25 in 10.0 mi Calm Calm - N/A   Scattered Clouds
9:15 AM 78.4 °F - 71.6 °F 79% 30.25 in 10.0 mi Calm Calm - N/A   Mostly Cloudy
9:35 AM 78.8 °F - 71.8 °F 79% 30.25 in 10.0 mi SSW 3.5 mph - N/A   Mostly Cloudy
9:55 AM 79.3 °F - 72.1 °F 79% 30.25 in 10.0 mi SW 3.5 mph - N/A   Scattered Clouds
10:15 AM 79.2 °F - 71.4 °F 77% 30.25 in 10.0 mi West 3.5 mph - N/A   Light Drizzle
10:35 AM 80.1 °F 84.0 °F 72.1 °F 77% 30.25 in 10.0 mi West 5.8 mph - N/A   Scattered Clouds
10:55 AM 81.1 °F 85.4 °F 71.6 °F 73% 30.25 in 10.0 mi SW 3.5 mph - N/A   Scattered Clouds
11:15 AM 81.9 °F 86.4 °F 71.8 °F 71% 30.25 in 10.0 mi WSW 3.5 mph - N/A   Mostly Cloudy
11:35 AM 82.8 °F 88.2 °F 72.5 °F 71% 30.25 in 10.0 mi WSW 5.8 mph - N/A   Overcast
11:55 AM 83.5 °F 89.1 °F 72.1 °F 69% 30.24 in 10.0 mi Calm Calm - N/A   Overcast
12:15 PM 83.3 °F 88.7 °F 72.1 °F 69% 30.24 in 10.0 mi West 6.9 mph - N/A   Overcast
12:35 PM 82.9 °F 88.5 °F 72.5 °F 71% 30.24 in 7.0 mi West 8.1 mph - N/A   Mostly Cloudy
12:55 PM 85.8 °F 93.0 °F 73.4 °F 66% 30.23 in 10.0 mi Calm Calm - N/A   Scattered Clouds
1:15 PM 86.2 °F 91.8 °F 71.4 °F 61% 30.23 in 10.0 mi South 5.8 mph - N/A   Scattered Clouds
1:35 PM 86.2 °F 91.4 °F 70.9 °F 60% 30.22 in 10.0 mi South 5.8 mph - N/A   Mostly Cloudy
1:55 PM 86.0 °F 91.8 °F 71.6 °F 62% 30.22 in 10.0 mi West 5.8 mph - N/A   Overcast
2:15 PM 80.1 °F 83.7 °F 71.6 °F 75% 30.22 in 10.0 mi Calm Calm - N/A   Light Drizzle
2:35 PM 82.4 °F 87.9 °F 72.9 °F 73% 30.21 in 10.0 mi Calm Calm - N/A   Light Drizzle
2:55 PM 83.7 °F 89.4 °F 72.7 °F 69% 30.20 in 10.0 mi East 3.5 mph - N/A   Overcast
3:15 PM 82.9 °F 88.8 °F 73.0 °F 72% 30.20 in 10.0 mi NE 3.5 mph - N/A   Overcast
3:35 PM 84.2 °F 90.9 °F 73.6 °F 70% 30.19 in 10.0 mi NE 5.8 mph - N/A   Overcast
3:55 PM 85.6 °F 92.2 °F 72.9 °F 65% 30.18 in 10.0 mi SSW 3.5 mph - N/A   Overcast
4:15 PM 88.7 °F 94.3 °F 70.7 °F 55% 30.18 in 10.0 mi South 5.8 mph - N/A   Scattered Clouds
4:35 PM 88.2 °F 94.1 °F 71.4 °F 57% 30.18 in 10.0 mi SW 5.8 mph - N/A   Scattered Clouds
4:55 PM 88.3 °F 94.5 °F 71.2 °F 57% 30.18 in 10.0 mi WSW 4.6 mph - N/A   Mostly Cloudy
5:15 PM 88.2 °F 94.6 °F 71.8 °F 58% 30.17 in 10.0 mi WSW 5.8 mph - N/A   Mostly Cloudy
5:35 PM 87.1 °F 93.6 °F 72.1 °F 61% 30.17 in 10.0 mi West 8.1 mph - N/A   Mostly Cloudy
5:55 PM 87.1 °F 93.6 °F 72.3 °F 61% 30.17 in 10.0 mi WSW 3.5 mph - N/A   Mostly Cloudy
6:15 PM 85.8 °F 93.8 °F 74.1 °F 68% 30.17 in 10.0 mi WNW 15.0 mph 18.4 mph N/A Rain Rain
6:35 PM 83.7 °F 91.7 °F 75.4 °F 76% 30.17 in 10.0 mi WNW 6.9 mph - N/A   Mostly Cloudy
6:55 PM 84.2 °F 92.6 °F 75.6 °F 75% 30.18 in 10.0 mi WNW 6.9 mph - N/A Thunderstorm Mostly Cloudy
7:15 PM 83.5 °F 90.9 °F 74.7 °F 75% 30.18 in 10.0 mi South 4.6 mph - N/A   Mostly Cloudy
7:35 PM 82.0 °F 89.4 °F 75.9 °F 82% 30.18 in 10.0 mi Calm Calm - N/A   Overcast
7:55 PM 81.9 °F 88.7 °F 75.6 °F 81% 30.18 in 10.0 mi Calm Calm - N/A   Mostly Cloudy
8:15 PM 81.9 °F 88.5 °F 75.2 °F 80% 30.19 in 10.0 mi South 3.5 mph - N/A   Scattered Clouds
8:35 PM 81.5 °F 88.0 °F 75.4 °F 82% 30.19 in 10.0 mi Calm Calm - N/A   Clear
8:55 PM 80.6 °F 86.2 °F 75.2 °F 84% 30.20 in 10.0 mi Calm Calm - N/A   Clear
9:15 PM 80.2 °F 85.5 °F 75.2 °F 85% 30.21 in 10.0 mi Calm Calm - N/A   Clear
9:35 PM 80.1 °F 85.1 °F 75.2 °F 85% 30.21 in 10.0 mi Calm Calm - N/A   Clear
9:55 PM 79.9 °F - 75.4 °F 86% 30.21 in 10.0 mi Calm Calm - N/A   Clear
10:15 PM 80.1 °F 85.2 °F 75.6 °F 86% 30.22 in 10.0 mi Calm Calm - N/A   Clear
10:35 PM 79.9 °F - 75.6 °F 87% 30.22 in 10.0 mi Calm Calm - N/A   Clear
10:55 PM 79.7 °F - 75.4 °F 87% 30.22 in 10.0 mi Calm Calm - N/A   Clear
11:15 PM 79.3 °F - 75.4 °F 88% 30.22 in 10.0 mi Calm Calm - N/A   Clear
11:35 PM 79.7 °F - 75.4 °F 87% 30.23 in 10.0 mi Calm Calm - N/A   Scattered Clouds
11:55 PM 79.7 °F - 75.6 °F 87% 30.23 in 10.0 mi Calm Calm - N/A   Scattered Clouds